This is the latest recevied weather packets stored in our database for station/object N7WSS. If no packets are shown the sender has not sent any weather packets the latest 10 day(s).
| Time | Temp. | Humidity | Pressure | Rain* | Wind** | Luminosity | Snow |
|---|---|---|---|---|---|---|---|
| 1777469775 | 14.44° C | 30% | 1014.3 hPa | 0 mm | - | - | - |
| 1777469471 | 13.89° C | 31% | 1014.5 hPa | 0 mm | - | - | - |
| 1777469165 | 13.89° C | 32% | 1014.4 hPa | 0 mm | - | - | - |
| 1777468865 | 13.89° C | 31% | 1014.5 hPa | 0 mm | - | - | - |
| 1777468562 | 13.33° C | 31% | 1014.4 hPa | 0 mm | - | - | - |
| 1777468259 | 13.33° C | 30% | 1014.2 hPa | 0 mm | - | - | - |
| 1777467955 | 13.33° C | 30% | 1014.2 hPa | 0 mm | - | - | - |
| 1777467651 | 13.33° C | 30% | 1014.2 hPa | 0 mm | - | - | - |
| 1777467346 | 13.33° C | 30% | 1014.1 hPa | 0 mm | - | - | - |
| 1777467042 | 13.33° C | 29% | 1014 hPa | 0 mm | - | - | - |
| 1777466740 | 13.89° C | 29% | 1013.9 hPa | 0 mm | - | - | - |
| 1777466438 | 13.89° C | 29% | 1014 hPa | 0 mm | - | - | - |
| 1777466133 | 13.33° C | 30% | 1013.9 hPa | 0 mm | - | - | - |
| 1777465830 | 13.33° C | 30% | 1014 hPa | 0 mm | - | - | - |
| 1777465525 | 13.33° C | 31% | 1014 hPa | 0 mm | - | - | - |
| 1777465220 | 12.78° C | 31% | 1013.9 hPa | 0 mm | - | - | - |
| 1777464915 | 13.33° C | 30% | 1014 hPa | 0 mm | - | - | - |
| 1777464610 | 13.33° C | 30% | 1014 hPa | 0 mm | - | - | - |
| 1777464307 | 13.33° C | 29% | 1014 hPa | 0 mm | - | - | - |
| 1777464003 | 13.89° C | 29% | 1014.1 hPa | 0 mm | - | - | - |
| 1777463697 | 13.89° C | 28% | 1014.1 hPa | 0 mm | - | - | - |
| 1777463393 | 13.89° C | 28% | 1014.2 hPa | 0 mm | - | - | - |
| 1777463089 | 14.44° C | 28% | 1014.1 hPa | 0 mm | - | - | - |
| 1777462784 | 14.44° C | 27% | 1014 hPa | 0 mm | - | - | - |
| 1777462480 | 14.44° C | 28% | 1014.3 hPa | 0 mm | - | - | - |
* Rain latest hour (hover to see other rain measurements)
** Current wind speed in m/s (hover to see current wind gust speed)